^^
Station Historical Data
 
Daily Summary for September 15, 2019 Units:  English    Metric   Both
« Previous Day
Next Day »
Daily Weekly Monthly Yearly Custom
  Current: High: Low: Average:
Temperature: 85.6 °F 85.7 °F 54.7 °F 66.9 °F
Dew Point: 63.1 °F 64 °F 50.6 °F 56.6 °F
Humidity: 47% 94% 43% 72%
Wind Speed: 13mph 16mph 2mph 6.7mph
Wind Gust: 17mph 21mph - -
WindSSE - - ESE
Pressure: 29.65 in 29.78 in 29.65 in -
Precipitation: 0 in      
Historical Graphs
 
 
Tabular Data for September 15, 2019
Time Temperature Dew Point Pressure Wind Wind Speed Wind Gust Humidity Rainfall Rate (Hourly) solar Conditions
00:00 60.5 °F 50.7 °F 29.77 in ESE 6 mph 8 mph 70% 0 in 0.00 W/m2
00:05 60.3 °F 50.9 °F 29.78 in ESE 4 mph 8 mph 71% 0 in 0.00 W/m2
00:10 60.2 °F 51.1 °F 29.77 in ESE 6 mph 8 mph 72% 0 in 0.00 W/m2
00:15 60.3 °F 50.9 °F 29.77 in ESE 6 mph 9 mph 71% 0 in 0.00 W/m2
00:20 60.5 °F 51 °F 29.77 in East 4 mph 9 mph 71% 0 in 0.00 W/m2
00:25 60.6 °F 50.8 °F 29.77 in East 7 mph 8 mph 70% 0 in 0.00 W/m2
00:30 60.5 °F 51 °F 29.77 in East 7 mph 8 mph 71% 0 in 0.00 W/m2
00:35 60.4 °F 51 °F 29.77 in East 7 mph 8 mph 71% 0 in 0.00 W/m2
00:40 60.2 °F 50.8 °F 29.76 in ESE 6 mph 8 mph 71% 0 in 0.00 W/m2
00:45 60 °F 50.9 °F 29.76 in ESE 6 mph 8 mph 72% 0 in 0.00 W/m2
00:50 60 °F 50.9 °F 29.76 in ESE 6 mph 8 mph 72% 0 in 0.00 W/m2
00:55 59.9 °F 50.8 °F 29.76 in ESE 6 mph 7 mph 72% 0 in 0.00 W/m2
01:00 59.7 °F 51 °F 29.76 in ESE 5 mph 7 mph 73% 0 in 0.00 W/m2
01:05 59.3 °F 51 °F 29.76 in ESE 5 mph 7 mph 74% 0 in 0.00 W/m2
01:10 58.9 °F 50.6 °F 29.76 in SE 7 mph 7 mph 74% 0 in 0.00 W/m2
01:15 58.7 °F 50.8 °F 29.76 in ESE 5 mph 7 mph 75% 0 in 0.00 W/m2
01:20 58.5 °F 51 °F 29.76 in ESE 4 mph 7 mph 76% 0 in 0.00 W/m2
01:25 58.4 °F 50.9 °F 29.76 in ESE 6 mph 8 mph 76% 0 in 0.00 W/m2
01:30 58.3 °F 50.8 °F 29.76 in ESE 6 mph 8 mph 76% 0 in 0.00 W/m2
01:35 58.3 °F 50.8 °F 29.76 in ESE 4 mph 8 mph 76% 0 in 0.00 W/m2
01:40 58.1 °F 50.9 °F 29.77 in ESE 6 mph 8 mph 77% 0 in 0.00 W/m2
01:45 58.1 °F 51.3 °F 29.77 in ESE 3 mph 8 mph 78% 0 in 0.00 W/m2
01:50 57.9 °F 51.1 °F 29.77 in ESE 7 mph 8 mph 78% 0 in 0.00 W/m2
01:55 57.8 °F 51.3 °F 29.76 in ESE 6 mph 8 mph 79% 0 in 0.00 W/m2
02:00 57.7 °F 51.2 °F 29.77 in ESE 4 mph 7 mph 79% 0 in 0.00 W/m2
02:05 57.6 °F 51.5 °F 29.77 in ESE 6 mph 7 mph 80% 0 in 0.00 W/m2
02:10 57.7 °F 51.6 °F 29.77 in ESE 7 mph 7 mph 80% 0 in 0.00 W/m2
02:15 57.7 °F 51.6 °F 29.77 in ESE 6 mph 7 mph 80% 0 in 0.00 W/m2
02:20 57.6 °F 51.8 °F 29.77 in ESE 4 mph 7 mph 81% 0 in 0.00 W/m2
02:25 57.5 °F 52 °F 29.77 in ESE 4 mph 7 mph 82% 0 in 0.00 W/m2
02:30 57.8 °F 52.3 °F 29.77 in ESE 3 mph 7 mph 82% 0 in 0.00 W/m2
02:35 58.3 °F 52.8 °F 29.77 in ESE 2 mph 6 mph 82% 0 in 0.00 W/m2
02:40 58.4 °F 52.6 °F 29.76 in ESE 2 mph 4 mph 81% 0 in 0.00 W/m2
02:45 58.5 °F 52.7 °F 29.76 in ESE 3 mph 4 mph 81% 0 in 0.00 W/m2
02:50 58.6 °F 52.8 °F 29.76 in ESE 4 mph 6 mph 81% 0 in 0.00 W/m2
02:55 58.6 °F 52.8 °F 29.76 in ESE 4 mph 6 mph 81% 0 in 0.00 W/m2
03:00 58.7 °F 52.9 °F 29.76 in East 6 mph 6 mph 81% 0 in 0.00 W/m2
03:05 58.7 °F 53.2 °F 29.76 in East 4 mph 6 mph 82% 0 in 0.00 W/m2
03:10 58.7 °F 53.2 °F 29.76 in East 6 mph 6 mph 82% 0 in 0.00 W/m2
03:15 58.8 °F 53.3 °F 29.76 in East 4 mph 7 mph 82% 0 in 0.00 W/m2
03:20 58.6 °F 53.1 °F 29.76 in East 3 mph 7 mph 82% 0 in 0.00 W/m2
03:25 58.2 °F 52.7 °F 29.76 in East 4 mph 7 mph 82% 0 in 0.00 W/m2
03:30 58.2 °F 53.4 °F 29.76 in East 5 mph 7 mph 84% 0 in 0.00 W/m2
03:35 58.5 °F 53.7 °F 29.76 in East 5 mph 7 mph 84% 0 in 0.00 W/m2
03:40 58.6 °F 53.8 °F 29.75 in East 3 mph 7 mph 84% 0 in 0.00 W/m2
03:45 58.5 °F 53.4 °F 29.75 in East 3 mph 6 mph 83% 0 in 0.00 W/m2
03:50 58.2 °F 53.4 °F 29.75 in East 4 mph 7 mph 84% 0 in 0.00 W/m2
03:55 57.9 °F 53.1 °F 29.75 in East 4 mph 8 mph 84% 0 in 0.00 W/m2
04:00 57.5 °F 53 °F 29.75 in East 6 mph 8 mph 85% 0 in 0.00 W/m2
04:05 57.4 °F 53.6 °F 29.75 in East 6 mph 8 mph 87% 0 in 0.00 W/m2
04:10 57.4 °F 53.6 °F 29.75 in East 6 mph 8 mph 87% 0 in 0.00 W/m2
04:15 57.3 °F 53.5 °F 29.75 in ESE 7 mph 7 mph 87% 0 in 0.00 W/m2
04:20 57.2 °F 53.7 °F 29.75 in ESE 7 mph 7 mph 88% 0 in 0.00 W/m2
04:25 57.1 °F 53.6 °F 29.75 in ESE 4 mph 7 mph 88% 0 in 0.00 W/m2
04:30 57 °F 53.5 °F 29.75 in ESE 4 mph 7 mph 88% 0 in 0.00 W/m2
04:35 57 °F 53.5 °F 29.75 in ESE 6 mph 6 mph 88% 0 in 0.00 W/m2
04:40 57 °F 53.8 °F 29.75 in ESE 6 mph 7 mph 89% 0 in 0.00 W/m2
04:45 56.9 °F 53.4 °F 29.74 in ESE 6 mph 7 mph 88% 0 in 0.00 W/m2
04:50 56.6 °F 53.4 °F 29.74 in ESE 4 mph 7 mph 89% 0 in 0.00 W/m2
04:55 56.6 °F 53.4 °F 29.75 in ESE 3 mph 7 mph 89% 0 in 0.00 W/m2
05:00 56.5 °F 53.3 °F 29.75 in ESE 4 mph 7 mph 89% 0 in 0.00 W/m2
05:05 56.3 °F 53.1 °F 29.75 in ESE 3 mph 7 mph 89% 0 in 0.00 W/m2
05:10 56.3 °F 53.4 °F 29.75 in East 4 mph 6 mph 90% 0 in 0.00 W/m2
05:15 56.1 °F 52.9 °F 29.75 in East 4 mph 6 mph 89% 0 in 0.00 W/m2
05:20 55.8 °F 52.9 °F 29.75 in ESE 6 mph 6 mph 90% 0 in 0.00 W/m2
05:25 55.5 °F 52.6 °F 29.75 in ESE 3 mph 7 mph 90% 0 in 0.00 W/m2
05:30 55.5 °F 52.9 °F 29.75 in ESE 3 mph 7 mph 91% 0 in 0.00 W/m2
05:35 55.3 °F 52.4 °F 29.75 in East 4 mph 7 mph 90% 0 in 0.00 W/m2
05:40 55.1 °F 52.5 °F 29.75 in ESE 3 mph 7 mph 91% 0 in 0.00 W/m2
05:45 55.2 °F 52.9 °F 29.75 in ESE 4 mph 6 mph 92% 0 in 0.00 W/m2
05:50 55.3 °F 53 °F 29.75 in ESE 6 mph 7 mph 92% 0 in 0.00 W/m2
05:55 55.6 °F 53.3 °F 29.75 in ESE 4 mph 7 mph 92% 0 in 0.00 W/m2
06:00 55.6 °F 53.3 °F 29.75 in ESE 4 mph 6 mph 92% 0 in 0.00 W/m2
06:05 55.6 °F 53 °F 29.75 in East 4 mph 6 mph 91% 0 in 0.00 W/m2
06:10 55.6 °F 53.3 °F 29.75 in ESE 4 mph 6 mph 92% 0 in 0.00 W/m2
06:15 55.7 °F 53.1 °F 29.75 in ESE 3 mph 6 mph 91% 0 in 0.00 W/m2
06:20 55.6 °F 53.3 °F 29.75 in ESE 4 mph 6 mph 92% 0 in 0.00 W/m2
06:25 55.6 °F 53.3 °F 29.75 in SE 3 mph 5 mph 92% 0 in 0.00 W/m2
06:30 55.7 °F 53.4 °F 29.75 in ESE 4 mph 5 mph 92% 0 in 0.00 W/m2
06:35 55.8 °F 53.8 °F 29.75 in East 4 mph 6 mph 93% 0 in 0.00 W/m2
06:40 55.8 °F 53.2 °F 29.75 in ESE 4 mph 6 mph 91% 0 in 0.00 W/m2
06:45 55.5 °F 53.2 °F 29.75 in ESE 4 mph 6 mph 92% 0 in 0.00 W/m2
06:50 55.3 °F 53.3 °F 29.75 in ESE 4 mph 6 mph 93% 0 in 0.00 W/m2
06:55 55.3 °F 53 °F 29.75 in ESE 3 mph 6 mph 92% 0 in 0.00 W/m2
07:00 55.2 °F 53.2 °F 29.75 in ESE 3 mph 6 mph 93% 0 in 0.00 W/m2
07:05 55 °F 52.7 °F 29.75 in ESE 6 mph 6 mph 92% 0 in 0.00 W/m2
07:10 54.9 °F 52.9 °F 29.75 in East 3 mph 6 mph 93% 0 in 0.00 W/m2
07:15 54.7 °F 52.4 °F 29.75 in ESE 4 mph 7 mph 92% 0 in 0.00 W/m2
07:20 54.8 °F 53.1 °F 29.75 in ESE 4 mph 7 mph 94% 0 in 5.00 W/m2
07:25 54.8 °F 53.1 °F 29.75 in ESE 6 mph 7 mph 94% 0 in 7.00 W/m2
07:30 54.9 °F 53.2 °F 29.76 in ESE 6 mph 7 mph 94% 0 in 11.00 W/m2
07:35 55 °F 53.3 °F 29.75 in ESE 6 mph 7 mph 94% 0 in 12.00 W/m2
07:40 55 °F 53.3 °F 29.75 in ESE 6 mph 7 mph 94% 0 in 16.00 W/m2
07:45 55.2 °F 53.5 °F 29.76 in ESE 4 mph 8 mph 94% 0 in 18.00 W/m2
07:50 55.2 °F 53.5 °F 29.76 in East 6 mph 8 mph 94% 0 in 21.00 W/m2
07:55 55.2 °F 53.5 °F 29.76 in East 7 mph 8 mph 94% 0 in 23.00 W/m2
08:00 55.3 °F 53.6 °F 29.75 in East 5 mph 8 mph 94% 0 in 25.00 W/m2
08:05 55.8 °F 54.1 °F 29.75 in East 5 mph 8 mph 94% 0 in 26.00 W/m2
08:10 56 °F 54.3 °F 29.75 in East 4 mph 8 mph 94% 0 in 28.00 W/m2
08:15 56.2 °F 54.2 °F 29.75 in East 7 mph 8 mph 93% 0 in 32.00 W/m2
08:20 56.5 °F 54.8 °F 29.76 in East 4 mph 8 mph 94% 0 in 33.00 W/m2
08:25 56.9 °F 54.9 °F 29.76 in SE 4 mph 8 mph 93% 0 in 107.00 W/m2
08:30 57.3 °F 55.6 °F 29.76 in SE 5 mph 8 mph 94% 0 in 111.00 W/m2
08:35 58 °F 55.7 °F 29.76 in SE 4 mph 7 mph 92% 0 in 105.00 W/m2
08:40 58.4 °F 55.8 °F 29.76 in SE 5 mph 8 mph 91% 0 in 114.00 W/m2
08:45 58.7 °F 56.1 °F 29.76 in ESE 7 mph 8 mph 91% 0 in 171.00 W/m2
08:50 59.3 °F 56.4 °F 29.76 in ESE 7 mph 8 mph 90% 0 in 195.00 W/m2
08:55 59.8 °F 56.6 °F 29.76 in ESE 6 mph 8 mph 89% 0 in 213.00 W/m2
09:00 60.4 °F 56.8 °F 29.75 in ESE 7 mph 8 mph 88% 0 in 227.00 W/m2
09:05 61 °F 57.4 °F 29.75 in ESE 8 mph 8 mph 88% 0 in 236.00 W/m2
09:10 61.6 °F 57.4 °F 29.75 in ESE 6 mph 8 mph 86% 0 in 244.00 W/m2
09:15 62.2 °F 58 °F 29.75 in ESE 4 mph 8 mph 86% 0 in 253.00 W/m2
09:20 62.5 °F 57.6 °F 29.75 in SE 5 mph 9 mph 84% 0 in 269.00 W/m2
09:25 62.7 °F 57.8 °F 29.75 in SE 7 mph 9 mph 84% 0 in 271.00 W/m2
09:30 63.2 °F 58.6 °F 29.76 in SE 7 mph 9 mph 85% 0 in 251.00 W/m2
09:35 63.6 °F 59.3 °F 29.76 in SE 3 mph 9 mph 86% 0 in 313.00 W/m2
09:40 64.3 °F 59 °F 29.76 in SE 8 mph 10 mph 83% 0 in 369.00 W/m2
09:45 64.5 °F 58.5 °F 29.76 in ESE 4 mph 10 mph 81% 0 in 383.00 W/m2
09:50 64.7 °F 58.4 °F 29.76 in SE 9 mph 10 mph 80% 0 in 397.00 W/m2
09:55 65 °F 59 °F 29.76 in SE 7 mph 9 mph 81% 0 in 373.00 W/m2
10:00 65.2 °F 58.9 °F 29.76 in SE 5 mph 9 mph 80% 0 in 306.00 W/m2
10:05 65.4 °F 58.7 °F 29.76 in ESE 7 mph 9 mph 79% 0 in 341.00 W/m2
10:10 65.8 °F 59.1 °F 29.76 in ESE 4 mph 9 mph 79% 0 in 403.00 W/m2
10:15 66.6 °F 59.5 °F 29.75 in SE 5 mph 9 mph 78% 0 in 431.00 W/m2
10:20 67.3 °F 59.5 °F 29.75 in ESE 7 mph 9 mph 76% 0 in 438.00 W/m2
10:25 68 °F 59.8 °F 29.75 in SE 7 mph 9 mph 75% 0 in 441.00 W/m2
10:30 68.7 °F 59.7 °F 29.75 in SE 8 mph 9 mph 73% 0 in 422.00 W/m2
10:35 69.1 °F 60.1 °F 29.75 in SE 5 mph 9 mph 73% 0 in 422.00 W/m2
10:40 69.5 °F 60.5 °F 29.75 in SE 5 mph 9 mph 73% 0 in 413.00 W/m2
10:45 69.9 °F 60.5 °F 29.75 in SSE 6 mph 10 mph 72% 0 in 410.00 W/m2
10:50 70.4 °F 60.1 °F 29.75 in SE 7 mph 10 mph 70% 0 in 408.00 W/m2
10:55 70.8 °F 60.1 °F 29.75 in SE 8 mph 10 mph 69% 0 in 417.00 W/m2
11:00 71.2 °F 60.1 °F 29.75 in SE 9 mph 10 mph 68% 0 in 429.00 W/m2
11:05 71.6 °F 60.5 °F 29.75 in SE 5 mph 10 mph 68% 0 in 441.00 W/m2
11:10 72.3 °F 61.6 °F 29.75 in SE 5 mph 10 mph 69% 0 in 425.00 W/m2
11:15 72.8 °F 60.8 °F 29.74 in ESE 8 mph 10 mph 66% 0 in 417.00 W/m2
11:20 73.1 °F 60.2 °F 29.74 in ESE 5 mph 10 mph 64% 0 in 441.00 W/m2
11:25 73.5 °F 60.1 °F 29.74 in ESE 7 mph 9 mph 63% 0 in 499.00 W/m2
11:30 73.8 °F 59.5 °F 29.74 in ESE 9 mph 9 mph 61% 0 in 561.00 W/m2
11:35 74.3 °F 60 °F 29.74 in ESE 6 mph 9 mph 61% 0 in 608.00 W/m2
11:40 74.9 °F 61.5 °F 29.74 in SE 8 mph 9 mph 63% 0 in 617.00 W/m2
11:45 75.4 °F 61 °F 29.73 in SE 8 mph 9 mph 61% 0 in 629.00 W/m2
11:50 75.9 °F 60.1 °F 29.73 in SE 7 mph 10 mph 58% 0 in 626.00 W/m2
11:55 76.3 °F 60.4 °F 29.74 in SE 10 mph 11 mph 58% 0 in 645.00 W/m2
12:00 76.6 °F 61.2 °F 29.74 in SE 7 mph 11 mph 59% 0 in 652.00 W/m2
12:05 77 °F 61.6 °F 29.73 in SE 12 mph 12 mph 59% 0 in 661.00 W/m2
12:10 77.1 °F 60.7 °F 29.73 in SE 7 mph 13 mph 57% 0 in 649.00 W/m2
12:15 77.3 °F 60.9 °F 29.73 in SSE 9 mph 13 mph 57% 0 in 677.00 W/m2
12:20 78 °F 61.5 °F 29.74 in SSE 9 mph 13 mph 57% 0 in 682.00 W/m2
12:25 78.5 °F 59.9 °F 29.73 in SE 7 mph 12 mph 53% 0 in 687.00 W/m2
12:30 78.9 °F 60.3 °F 29.74 in South 8 mph 12 mph 53% 0 in 693.00 W/m2
12:35 79 °F 60.4 °F 29.73 in SSE 6 mph 12 mph 53% 0 in 701.00 W/m2
12:40 79.3 °F 59.6 °F 29.73 in SSE 8 mph 12 mph 51% 0 in 705.00 W/m2
12:45 79.3 °F 60.1 °F 29.73 in SE 8 mph 12 mph 52% 0 in 708.00 W/m2
12:50 79.3 °F 60.1 °F 29.73 in SE 10 mph 14 mph 52% 0 in 714.00 W/m2
12:55 79.6 °F 61 °F 29.73 in SSE 7 mph 14 mph 53% 0 in 717.00 W/m2
13:00 79.8 °F 60.1 °F 29.73 in SSE 8 mph 11 mph 51% 0 in 722.00 W/m2
13:05 79.8 °F 60.1 °F 29.73 in SE 10 mph 12 mph 51% 0 in 721.00 W/m2
13:10 79.9 °F 59.6 °F 29.73 in SSE 9 mph 12 mph 50% 0 in 722.00 W/m2
13:15 79.9 °F 59.6 °F 29.72 in SSE 6 mph 12 mph 50% 0 in 729.00 W/m2
13:20 80 °F 61.3 °F 29.72 in ESE 8 mph 13 mph 53% 0 in 735.00 W/m2
13:25 80.1 °F 60.9 °F 29.72 in SE 12 mph 13 mph 52% 0 in 728.00 W/m2
13:30 80.2 °F 60.4 °F 29.72 in ESE 8 mph 13 mph 51% 0 in 719.00 W/m2
13:35 80.6 °F 62.9 °F 29.71 in ESE 10 mph 13 mph 55% 0 in 737.00 W/m2
13:40 80.4 °F 61.2 °F 29.71 in ESE 8 mph 13 mph 52% 0 in 737.00 W/m2
13:45 80.4 °F 60.6 °F 29.71 in East 8 mph 13 mph 51% 0 in 744.00 W/m2
13:50 81 °F 60.6 °F 29.71 in SE 9 mph 13 mph 50% 0 in 715.00 W/m2
13:55 81.1 °F 60.7 °F 29.71 in SE 10 mph 13 mph 50% 0 in 740.00 W/m2
14:00 80.9 °F 59.9 °F 29.71 in SE 11 mph 14 mph 49% 0 in 557.00 W/m2
14:05 80.9 °F 60.5 °F 29.70 in ESE 10 mph 14 mph 50% 0 in 780.00 W/m2
14:10 81.2 °F 61.9 °F 29.70 in ESE 9 mph 14 mph 52% 0 in 851.00 W/m2
14:15 81.3 °F 62 °F 29.70 in ESE 12 mph 14 mph 52% 0 in 788.00 W/m2
14:20 81.5 °F 61.6 °F 29.70 in ESE 10 mph 14 mph 51% 0 in 773.00 W/m2
14:25 81.4 °F 63.7 °F 29.70 in SE 9 mph 14 mph 55% 0 in 773.00 W/m2
14:30 81.8 °F 61.3 °F 29.70 in SE 10 mph 14 mph 50% 0 in 821.00 W/m2
14:35 82 °F 62.1 °F 29.70 in ESE 11 mph 14 mph 51% 0 in 679.00 W/m2
14:40 82.1 °F 62.2 °F 29.69 in ESE 10 mph 14 mph 51% 0 in 766.00 W/m2
14:45 82.5 °F 62 °F 29.69 in ESE 9 mph 14 mph 50% 0 in 766.00 W/m2
14:50 82.8 °F 61.1 °F 29.69 in SE 10 mph 15 mph 48% 0 in 696.00 W/m2
14:55 82.8 °F 61.7 °F 29.69 in ESE 7 mph 15 mph 49% 0 in 659.00 W/m2
15:00 82.7 °F 61 °F 29.68 in SE 11 mph 16 mph 48% 0 in 694.00 W/m2
15:05 82.9 °F 62.4 °F 29.68 in ESE 10 mph 16 mph 50% 0 in 737.00 W/m2
15:10 83.2 °F 62.6 °F 29.68 in ESE 12 mph 16 mph 50% 0 in 721.00 W/m2
15:15 83.4 °F 62.2 °F 29.68 in ESE 9 mph 16 mph 49% 0 in 677.00 W/m2
15:20 83.6 °F 61.2 °F 29.68 in SE 11 mph 16 mph 47% 0 in 682.00 W/m2
15:25 83.9 °F 62.7 °F 29.68 in SE 10 mph 16 mph 49% 0 in 666.00 W/m2
15:30 84.1 °F 62.9 °F 29.68 in SSE 6 mph 16 mph 49% 0 in 657.00 W/m2
15:35 84.2 °F 61.8 °F 29.67 in ESE 8 mph 15 mph 47% 0 in 645.00 W/m2
15:40 84.2 °F 62.4 °F 29.67 in East 11 mph 15 mph 48% 0 in 636.00 W/m2
15:45 84.5 °F 63.2 °F 29.67 in SE 11 mph 15 mph 49% 0 in 628.00 W/m2
15:50 84.7 °F 64 °F 29.67 in ESE 13 mph 16 mph 50% 0 in 617.00 W/m2
15:55 84.9 °F 63.6 °F 29.67 in SE 10 mph 16 mph 49% 0 in 606.00 W/m2
16:00 85.2 °F 63.9 °F 29.67 in SE 7 mph 16 mph 49% 0 in 598.00 W/m2
16:05 85.3 °F 61.6 °F 29.66 in ESE 16 mph 18 mph 45% 0 in 591.00 W/m2
16:10 85.3 °F 62.8 °F 29.67 in SE 13 mph 18 mph 47% 0 in 580.00 W/m2
16:15 85.4 °F 62.3 °F 29.66 in SSE 14 mph 18 mph 46% 0 in 570.00 W/m2
16:20 85.3 °F 60.3 °F 29.66 in SE 11 mph 21 mph 43% 0 in 557.00 W/m2
16:25 85.2 °F 60.8 °F 29.66 in SE 15 mph 21 mph 44% 0 in 547.00 W/m2
16:30 85.4 °F 60.4 °F 29.66 in SE 11 mph 21 mph 43% 0 in 534.00 W/m2
16:35 85.5 °F 60.4 °F 29.66 in SSE 16 mph 21 mph 43% 0 in 526.00 W/m2
16:40 85.5 °F 61.7 °F 29.66 in SSE 9 mph 20 mph 45% 0 in 513.00 W/m2
16:45 85.5 °F 61.7 °F 29.66 in SE 9 mph 20 mph 45% 0 in 501.00 W/m2
16:50 85.7 °F 61.3 °F 29.65 in SSE 13 mph 20 mph 44% 0 in 487.00 W/m2
16:55 85.7 °F 61.3 °F 29.65 in SE 13 mph 20 mph 44% 0 in 475.00 W/m2
17:00 85.7 °F 61.9 °F 29.66 in SE 8 mph 17 mph 45% 0 in 461.00 W/m2
17:05 85.7 °F 62.5 °F 29.65 in SE 15 mph 16 mph 46% 0 in 446.00 W/m2
17:10 85.6 °F 61.8 °F 29.65 in SE 10 mph 17 mph 45% 0 in 436.00 W/m2
17:15 85.6 °F 63.1 °F 29.65 in SSE 13 mph 17 mph 47% 0 in 422.00 W/m2
Bismarck, North Dakota, USA
Compliments of Weather Underground - 4 mb